This demonstration page uses our WeatherBlox Daily Observations layout. Learn more.

Left ArrowRight Arrow

34.02893, -84.19858

Hourly Observations for December 6, 2018

Temp ( °F °C ) Dew Point ( °F °C ) Humidity (%) Winds ( mph kmh ) Pressure ( in mb ) Visibility ( mi km ) Precip ( " mm )
12:53 am 00:53 Clear 28 -2.2 19 -7.2 69 69 NNW 5 7 30.40 1029 10 16 0.00 0.00
1:53 am 01:53 Clear 27 -2.8 19 -7.2 72 72 NNW 3 6 30.39 1029 10 16 0.00 0.00
2:53 am 02:53 Clear 28 -2.2 20 -6.7 72 72 NW 7 11 30.37 1028 10 16 0.00 0.00
3:53 am 03:53 Clear 28 -2.2 19 -7.2 69 69 WNW 3 6 30.39 1029 10 16 0.00 0.00
4:53 am 04:53 Clear 26 -3.3 19 -7.2 75 75 N 5 7 30.38 1029 10 16 0.00 0.00
5:53 am 05:53 Clear 24 -4.4 19 -7.2 81 81 N 3 6 30.40 1030 10 16 0.00 0.00
6:53 am 06:53 Clear 24 -4.4 19 -7.2 81 81 Calm 30.43 1031 10 16 0.00 0.00
7:53 am 07:53 Sunny 25 -3.9 20 -6.7 81 81 Calm 30.44 1031 10 16 0.00 0.00
8:53 am 08:53 Sunny 32 0 22 -5.6 66 66 Calm 30.44 1031 10 16 0.00 0.00
9:53 am 09:53 Sunny 37 2.8 19 -7.2 48 48 VRB 5 7 30.45 1031 10 16 0.00 0.00
10:53 am 10:53 Sunny 41 5 18 -7.8 39 39 VRB 3 6 30.44 1031 10 16 0.00 0.00
11:53 am 11:53 Sunny 43 6.1 19 -7.2 38 38 VRB 6 9 30.42 1030 10 16 0.00 0.00
12:53 pm 12:53 Sunny 46 7.8 19 -7.2 34 34 Calm 30.40 1029 10 16 0.00 0.00
1:53 pm 13:53 Sunny 48 8.9 17 -8.3 29 29 Calm 30.37 1029 10 16 0.00 0.00
2:53 pm 14:53 Sunny 49 9.4 18 -7.8 29 29 SSW 7 11 30.37 1028 10 16 0.00 0.00
3:53 pm 15:53 Sunny 48 8.9 16 -8.9 28 28 SW 6 9 30.36 1028 10 16 0.00 0.00
4:53 pm 16:53 Sunny 47 8.3 18 -7.8 31 31 S 7 11 30.35 1028 10 16 0.00 0.00
5:53 pm 17:53 Clear 43 6.1 22 -5.6 43 43 Calm 30.38 1029 10 16 0.00 0.00
6:53 pm 18:53 Clear 40 4.4 23 -5 51 51 Calm 30.39 1029 10 16 0.00 0.00
7:53 pm 19:53 Clear 40 4.4 22 -5.6 49 49 SSW 5 7 30.39 1029 10 16 0.00 0.00
8:53 pm 20:53 Clear 39 3.9 22 -5.6 50 50 W 5 7 30.40 1030 10 16 0.00 0.00
9:53 pm 21:53 Mostly Cloudy 37 2.8 26 -3.3 65 65 Calm 30.40 1030 10 16 0.00 0.00
10:53 pm 22:53 Cloudy 38 3.3 27 -2.8 65 65 Calm 30.39 1029 10 16 0.00 0.00
11:53 pm 23:53 Cloudy 38 3.3 28 -2.2 68 68 NW 3 6 30.40 1029 10 16 0.00 0.00

Powered by AerisWeather